Location: Kuffner-Sternwarte
(48.2130°N, 16.2960°E)
Time: 08:02:23
(UTC+02:00)

COROT - Pass Details

Date: 16 August 2018
Orbit: 599 x 890 km, 90.0° (Epoch: 14 August)

Event Time Altitude Azimuth Distance (km) Brightness Sun altitude
Exits shadow 03:43:02 - 156° (SSE) 2,890 8.7 -18.1°
Reaches altitude 10° 03:44:45 10° 151° (SSE) 2,217 8.2 -17.9°
Maximum altitude 03:49:20 42° 82° (E) 976 6.9 -17.4°
Drops below altitude 10° 03:53:38 10° 11° (NNE) 2,072 9.1 -16.9°
Sets 03:55:53 0° 5° (N) 2,952 9.9 -16.6°
